Location: Curtidor
(10.3472°N, 67.2917°W)
Time: 19:32:26
(UTC+00:00)

Okean 1 - Pass Details

Date: 13 June 2024
Orbit: 502 x 529 km, 82.5° (Epoch: 24 July)

Event Time Altitude Azimuth Distance (km) Brightness Sun altitude
Rises 23:07:25 0° 192° (SSW) 2,645 6.7 -4.5°
Reaches altitude 10° 23:09:34 10° 197° (SSW) 1,761 5.8 -4.9°
Maximum altitude 23:13:21 54° 274° (W) 644 4.1 -5.8°
Drops below altitude 10° 23:17:10 10° 353° (N) 1,774 6.4 -6.6°
Sets 23:19:21 0° 357° (N) 2,666 7.2 -7.1°
